Weather History for Litchfield, MN

Change the Weather History Date:

Wednesday, January 9, 2013

  Actual Average Record
Temperature  
Mean Temperature 28 °F -  
Max Temperature 35 °F 17 °F 48 °F (1963)
Min Temperature 21 °F 0 °F -37 °F (1977)
Degree Days  
Heating Degree Days 37    
Moisture  
Dew Point 24 °F    
Average Humidity 80    
Maximum Humidity 93    
Minimum Humidity 69    
Precipitation  
Precipitation 0.00 in - - ()
Sea Level Pressure  
Sea Level Pressure 30.16 in    
Wind  
Wind Speed 12 mph (WSW)    
Max Wind Speed 20 mph    
Max Gust Speed 32 mph    
Visibility 10 miles    
Events Snow    
Averages and records for this station are not official NWS values.
T = Trace of Precipitation, MM = Missing Value Source: NWS Daily Summary

Daily Weather History Graph

Daily Weather History Graph

Search for Another Location

Airport:

Trip Planner

Search our weather history database for the weather conditions in past years. The results will help you decide how hot, cold, wet, or windy it might be!

Date:

Astronomy

Jan. 09, 2013 Rise Set
Actual Time 7:55 AM CST 4:55 PM CST
Civil Twilight 7:22 AM CST 5:28 PM CST
Nautical Twilight 6:45 AM CST 6:05 PM CST
Astronomical Twilight 6:10 AM CST 6:40 PM CST
Moon 5:35 AM CST (1/9) 2:57 PM CST (1/9)
Length of Visible Light 10h 06m
Length of Day
8h 59m
Waning Crescent, 6% of the Moon is Illuminated
Jan 9
Waning Crescent
Jan 11
New
Jan 18
First Quarter
Jan 26
Full
Feb 3
Last Quarter

Hourly Weather History & Observations

Time (CST) Temp. Windchill Dew Point Humidity Pressure Visibility Wind Dir Wind Speed Gust Speed Precip Events Conditions
12:13 AM 35.6 °F 25.2 °F 30.2 °F 81% 29.90 in 7.0 mi West 18.4 mph 25.3 mph N/A Snow Light Snow
12:33 AM 35.6 °F 27.1 °F 30.2 °F 81% 29.90 in 10.0 mi West 12.7 mph 25.3 mph N/A   Scattered Clouds
12:53 AM 35.6 °F 28.6 °F 30.2 °F 81% 29.90 in 10.0 mi West 9.2 mph 17.3 mph N/A   Clear
1:13 AM 33.8 °F 27.7 °F 30.2 °F 87% 29.90 in 10.0 mi WSW 6.9 mph - N/A   Clear
1:33 AM 33.8 °F 26.4 °F 30.2 °F 87% 29.91 in 10.0 mi WSW 9.2 mph - N/A   Clear
2:13 AM 32.0 °F 23.0 °F 28.4 °F 87% 29.92 in 10.0 mi WSW 11.5 mph 17.3 mph N/A   Clear
2:33 AM 32.0 °F 23.0 °F 28.4 °F 87% 29.94 in 10.0 mi WSW 11.5 mph 18.4 mph N/A   Clear
2:53 AM 32.0 °F 23.0 °F 28.4 °F 87% 29.95 in 10.0 mi WSW 11.5 mph 20.7 mph N/A   Clear
3:13 AM 32.0 °F 23.0 °F 28.4 °F 87% 29.95 in 10.0 mi WSW 11.5 mph 20.7 mph N/A   Clear
3:33 AM 33.8 °F 23.2 °F 28.4 °F 81% 29.96 in 10.0 mi West 17.3 mph 25.3 mph N/A   Clear
3:53 AM 33.8 °F 23.5 °F 28.4 °F 81% 29.96 in 10.0 mi West 16.1 mph 20.7 mph N/A   Clear
4:13 AM 33.8 °F 22.5 °F 28.4 °F 81% 29.97 in 10.0 mi West 19.6 mph 25.3 mph N/A   Clear
4:33 AM 33.8 °F 22.5 °F 26.6 °F 75% 29.98 in 10.0 mi West 19.6 mph 26.5 mph N/A   Clear
4:53 AM 33.8 °F 22.8 °F 26.6 °F 75% 29.99 in 10.0 mi West 18.4 mph 32.2 mph N/A   Clear
5:13 AM 32.0 °F 21.2 °F 26.6 °F 80% 30.02 in 10.0 mi West 16.1 mph 27.6 mph N/A   Clear
5:33 AM 32.0 °F 20.8 °F 26.6 °F 80% 30.03 in 10.0 mi West 17.3 mph 27.6 mph N/A   Clear
6:13 AM 30.2 °F 18.5 °F 24.8 °F 80% 30.05 in 10.0 mi West 17.3 mph 25.3 mph N/A   Clear
6:33 AM 30.2 °F 18.5 °F 24.8 °F 80% 30.06 in 10.0 mi WNW 17.3 mph 26.5 mph N/A   Clear
6:53 AM 30.2 °F 18.9 °F 23.0 °F 75% 30.07 in 10.0 mi WNW 16.1 mph 25.3 mph N/A   Clear
7:14 AM 30.2 °F 18.9 °F 23.0 °F 75% 30.08 in 10.0 mi WNW 16.1 mph 25.3 mph N/A   Clear
7:33 AM 30.2 °F 18.1 °F 21.2 °F 69% 30.09 in 10.0 mi WNW 18.4 mph 26.5 mph N/A   Clear
7:53 AM 28.4 °F 15.8 °F 21.2 °F 74% 30.11 in 10.0 mi WNW 18.4 mph 24.2 mph N/A   Clear
8:33 AM 28.4 °F 17.5 °F 21.2 °F 74% 30.13 in 10.0 mi WNW 13.8 mph 18.4 mph N/A   Clear
8:53 AM 28.4 °F 17.0 °F 21.2 °F 74% 30.15 in 10.0 mi WNW 15.0 mph 20.7 mph N/A   Clear
9:14 AM 28.4 °F 17.5 °F 21.2 °F 74% 30.16 in 10.0 mi WNW 13.8 mph 19.6 mph N/A   Clear
9:33 AM 28.4 °F 16.6 °F 21.2 °F 74% 30.16 in 10.0 mi WNW 16.1 mph 20.7 mph N/A   Clear
9:53 AM 30.2 °F 20.2 °F 21.2 °F 69% 30.16 in 10.0 mi NW 12.7 mph 18.4 mph N/A   Clear
10:12 AM 30.2 °F 19.8 °F 21.2 °F 69% 30.17 in 10.0 mi NW 13.8 mph - N/A   Clear
10:33 AM 28.4 °F 17.0 °F 21.2 °F 74% 30.17 in 10.0 mi NW 15.0 mph 21.9 mph N/A   Clear
10:53 AM 28.4 °F 18.0 °F 21.2 °F 74% 30.17 in 10.0 mi NW 12.7 mph 20.7 mph N/A   Clear
11:13 AM 28.4 °F 19.1 °F 21.2 °F 74% 30.19 in 10.0 mi WNW 10.4 mph 17.3 mph N/A   Clear
11:53 AM 30.2 °F 24.3 °F 21.2 °F 69% 30.24 in 10.0 mi West 5.8 mph - N/A   Clear
12:13 PM 30.2 °F 21.3 °F 21.2 °F 69% 30.26 in 10.0 mi WSW 10.4 mph 18.4 mph N/A   Clear
12:33 PM 30.2 °F 21.3 °F 23.0 °F 75% 30.26 in 10.0 mi West 10.4 mph 16.1 mph N/A   Clear
12:53 PM 30.2 °F 21.9 °F 23.0 °F 75% 30.27 in 10.0 mi West 9.2 mph - N/A   Clear
1:13 PM 30.2 °F 21.3 °F 21.2 °F 69% 30.27 in 10.0 mi West 10.4 mph - N/A   Clear
1:33 PM 30.2 °F 22.6 °F 21.2 °F 69% 30.28 in 10.0 mi WSW 8.1 mph - N/A   Clear
1:53 PM 30.2 °F 21.9 °F 21.2 °F 69% 30.29 in 10.0 mi WSW 9.2 mph 16.1 mph N/A   Clear
2:13 PM 30.2 °F 22.6 °F 23.0 °F 75% 30.29 in 10.0 mi West 8.1 mph - N/A   Clear
2:33 PM 30.2 °F 23.4 °F 23.0 °F 75% 30.31 in 10.0 mi WSW 6.9 mph - N/A   Clear
2:53 PM 30.2 °F 23.4 °F 21.2 °F 69% 30.31 in 10.0 mi West 6.9 mph - N/A   Clear
3:13 PM 30.2 °F 24.3 °F 23.0 °F 75% 30.33 in 10.0 mi WSW 5.8 mph - N/A   Clear
3:33 PM 30.2 °F 25.4 °F 23.0 °F 75% 30.32 in 10.0 mi SW 4.6 mph - N/A   Clear
3:53 PM 30.2 °F 25.4 °F 23.0 °F 75% 30.32 in 10.0 mi WSW 4.6 mph - N/A   Clear
4:13 PM 30.2 °F - 23.0 °F 75% 30.32 in 10.0 mi Calm Calm - N/A   Clear
4:33 PM 28.4 °F - 23.0 °F 80% 30.31 in 10.0 mi Calm Calm - N/A   Clear
4:53 PM 28.4 °F - 23.0 °F 80% 30.31 in 10.0 mi Calm Calm - N/A   Clear
5:13 PM 26.6 °F - 21.2 °F 80% 30.31 in 10.0 mi Calm Calm - N/A   Clear
5:33 PM 24.8 °F - 21.2 °F 86% 30.30 in 10.0 mi Calm Calm - N/A   Clear
5:53 PM 24.8 °F 19.1 °F 21.2 °F 86% 30.29 in 10.0 mi SE 4.6 mph - N/A   Clear
6:13 PM 21.2 °F 13.6 °F 19.4 °F 93% 30.27 in 10.0 mi SE 5.8 mph - N/A   Clear
6:33 PM 24.8 °F 20.5 °F 21.2 °F 86% 30.27 in 10.0 mi SSE 3.5 mph - N/A   Clear
6:53 PM 24.8 °F 19.1 °F 21.2 °F 86% 30.28 in 10.0 mi SE 4.6 mph - N/A   Clear
7:13 PM 24.8 °F 20.5 °F 21.2 °F 86% 30.28 in 10.0 mi SSE 3.5 mph - N/A   Clear
7:33 PM 24.8 °F 19.1 °F 21.2 °F 86% 30.28 in 10.0 mi SSE 4.6 mph - N/A   Clear
7:53 PM 24.8 °F 19.1 °F 21.2 °F 86% 30.28 in 10.0 mi SSE 4.6 mph - N/A   Clear
8:13 PM 26.6 °F 20.0 °F 23.0 °F 86% 30.27 in 10.0 mi SSE 5.8 mph - N/A   Clear
8:34 PM 26.6 °F 21.2 °F 24.8 °F 93% 30.26 in 10.0 mi South 4.6 mph - N/A   Clear
8:53 PM 26.6 °F 21.2 °F 24.8 °F 93% 30.26 in 10.0 mi SSE 4.6 mph - N/A   Clear
9:13 PM 28.4 °F 22.2 °F 24.8 °F 86% 30.25 in 10.0 mi SSE 5.8 mph - N/A   Clear
9:34 PM 28.4 °F 22.2 °F 24.8 °F 86% 30.25 in 10.0 mi SSE 5.8 mph - N/A   Clear
9:53 PM 30.2 °F 24.3 °F 26.6 °F 86% 30.23 in 10.0 mi South 5.8 mph - N/A   Clear
10:14 PM 30.2 °F 24.3 °F 26.6 °F 86% 30.22 in 10.0 mi SSE 5.8 mph - N/A   Clear
10:33 PM 30.2 °F 22.6 °F 26.6 °F 86% 30.22 in 10.0 mi SSE 8.1 mph - N/A   Clear
10:53 PM 30.2 °F 22.6 °F 26.6 °F 86% 30.23 in 10.0 mi SSE 8.1 mph - N/A   Clear
11:14 PM 30.2 °F 23.4 °F 26.6 °F 86% 30.22 in 10.0 mi South 6.9 mph - N/A   Clear
11:33 PM 28.4 °F 22.2 °F 26.6 °F 93% 30.22 in 10.0 mi SSE 5.8 mph - N/A   Clear
11:53 PM 28.4 °F 22.2 °F 26.6 °F 93% 30.21 in 10.0 mi SSE 5.8 mph - N/A   Clear